Weather in Rubezhnoye

Russia / Chechen Republic     43°43′48″N   45°10′12″E
temp.,
°C
wind,
m/s
gust,
m/s
humid.,
%
clouds,
%
prec.,
mm/h
press.,
hPa
HPBL,
m
27 september, mon
mon2700:00+15wsw35560 0.0 101689
03:00+15w33591 0.0 101534
06:00+14wnw3364100 0.0 101558
09:00+17w595966 0.0 1015847
12:00+19nw68556 0.0 10161134
15:00+18nw694733 0.0 10161070
18:00+17w4746100 0.0 1016815
21:00+16w4654100 0.0 1017502
28 september, tue
tue2800:00+15w356187 0.0 1017381
03:00+15nw2466100 0.0 1017183
06:00+14n1268100 0.0 1017101
09:00+15ne1165100 0.0 1018308
12:00+16ene225491 0.0 1018664
15:00+18ne224591 0.0 10181021
18:00+17ese1149100 0.0 1020159
21:00+15n3558100 0.0 1021310
29 september, wed
wed2900:00+14nne346396 0.0 1021290
03:00+14ne2365100 0.0 1022238
06:00+14ne236790 0.0 1022264
09:00+15ene3366100 0.0 1023701
12:00+15ene4557100 0.0 1023970
15:00+15e3453100 0.0 10231018
18:00+15e5757100 0.0 1023725
21:00+13e5866100 0.1 1023651
30 september, thu
thu3000:00+11e5871100 0.8 1023874
03:00+9ne5681100 3.8 1025487
06:00+9nne4588100 4.7 1026260
09:00+9ne4689100 10.0 1027529
12:00+10e3581100 3.2 1028719
15:00+11e3569100 3.9 1028962
18:00+10ene3477100 0.1 1029614
21:00+10e2385100 0.8 1030299
1 october, fri
fri100:00+10ne3586100 0.9 1029516
03:00+10e3685100 1.9 1030470
06:00+10e2781100 0.4 1030519
09:00+11ene3764100 0.5 1031523
12:00+12ene4657100 0.0 10311055
15:00+14ese4652100 0.0 10301610
18:00+12ese5863100 0.1 1031721
21:00+12e4859100 0.1 1031670